GW1804 Weather Reports


time (UTC)temp
C
wind
direction
speed
KPH
gust
KPH
rain 1hr
cm
rain 24hr
cm
rain mn
cm
humidity
%
barometer
mb
20260504032535 16 252 3.2 6.4 0.00 0.00 0.00 73 1014.5
20260504032035 16 256 1.6 6.4 0.00 0.00 0.00 73 1014.4
20260504031548 16 292 3.2 8.0 0.00 0.00 0.00 73 1014.4
20260504031035 16 278 3.2 8.0 0.00 0.00 0.00 73 1014.3
20260504030533 16 227 3.2 8.0 0.00 0.00 0.00 73 1014.2
20260504030051 16 269 1.6 6.4 0.00 0.00 0.00 73 1014.2
20260504025535 16 252 1.6 8.0 0.00 0.00 0.00 72 1014.2
20260504025035 16 232 1.6 8.0 0.00 0.00 0.00 72 1014.0
20260504024545 16 288 3.2 8.0 0.00 0.00 0.00 72 1014.0
20260504024034 16 273 3.2 6.4 0.00 0.00 0.00 72 1014.0
20260504023535 16 270 1.6 8.0 0.00 0.00 0.00 72 1014.0
20260504023059 16 235 1.6 8.0 0.00 0.00 0.00 72 1014.0
20260504022534 16 270 1.6 9.7 0.00 0.00 0.00 72 1014.1
20260504022034 16 262 3.2 9.7 0.00 0.00 0.00 71 1014.1
20260504021546 16 329 3.2 11.3 0.00 0.00 0.00 71 1014.1
20260504021034 16 276 4.8 11.3 0.00 0.00 0.00 71 1014.3
20260504020534 16 252 3.2 11.3 0.00 0.00 0.00 71 1014.0
20260504020057 16 246 4.8 12.9 0.00 0.00 0.00 71 1014.0
20260504015534 16 226 6.4 12.9 0.00 0.00 0.00 71 1014.0
20260504015035 16 257 4.8 11.3 0.00 0.00 0.00 71 1014.0
20260504014549 16 229 4.8 11.3 0.00 0.00 0.00 71 1013.9
20260504014035 16 269 4.8 11.3 0.00 0.00 0.00 71 1013.8
20260504013535 16 270 4.8 12.9 0.00 0.00 0.00 70 1013.9
20260504013100 16 233 6.4 14.5 0.00 0.00 0.00 70 1013.9
20260504012537 16 267 6.4 16.1 0.00 0.00 0.00 70 1013.8
20260504012033 16 284 8.0 16.1 0.00 0.00 0.00 70 1013.7
20260504011546 16 271 6.4 14.5 0.00 0.00 0.00 70 1013.6
20260504011032 16 288 4.8 14.5 0.00 0.00 0.00 70 1013.6
20260504010532 16 279 8.0 14.5 0.00 0.00 0.00 69 1013.6
20260504010053 16 299 6.4 14.5 0.00 0.00 0.00 69 1013.5
20260504005535 16 256 4.8 16.1 0.00 0.00 0.00 70 1013.5
20260504005032 16 317 8.0 16.1 0.00 0.00 0.00 70 1013.4
20260504004603 17 277 8.0 14.5 0.00 0.00 0.00 70 1013.4
20260504004033 17 257 6.4 17.7 0.00 0.00 0.00 69 1013.2
20260504003532 17 290 8.0 17.7 0.00 0.00 0.00 68 1013.5
20260504003045 17 239 8.0 17.7 0.00 0.00 0.00 68 1013.2
20260504002532 17 272 8.0 16.1 0.00 0.00 0.00 68 1013.3
20260504002032 17 276 6.4 17.7 0.00 0.00 0.00 68 1013.3
20260504001546 17 267 6.4 17.7 0.00 0.00 0.00 68 1013.1
20260504001035 17 258 6.4 16.1 0.00 0.00 0.00 67 1013.1
20260504000533 17 293 8.0 14.5 0.00 0.00 0.00 67 1013.2
20260504000049 17 291 8.0 16.1 0.00 0.00 0.00 66 1013.1
20260503235532 17 273 6.4 16.1 0.00 0.00 0.00 65 1013.1
20260503235032 17 292 8.0 14.5 0.00 0.00 0.00 65 1013.1
20260503234547 18 326 4.8 12.9 0.00 0.00 0.00 65 1013.0
20260503234032 18 262 6.4 14.5 0.00 0.00 0.00 65 1012.8
20260503233536 18 298 4.8 14.5 0.00 0.00 0.00 66 1012.8
20260503233046 18 302 4.8 14.5 0.00 0.00 0.00 64 1012.8
20260503232533 18 295 4.8 14.5 0.00 0.00 0.00 64 1013.0
20260503232034 18 279 8.0 16.1 0.00 0.00 0.00 64 1012.9
20260503231550 19 244 8.0 16.1 0.00 0.00 0.00 62 1013.0
20260503231033 20 293 8.0 14.5 0.00 0.00 0.00 61 1013.0
20260503230536 20 13 6.4 14.5 0.00 0.00 0.00 60 1013.1
20260503230044 20 302 6.4 14.5 0.00 0.00 0.00 62 1013.3
20260503225535 20 279 6.4 17.7 0.00 0.00 0.00 61 1013.2
20260503225035 20 274 8.0 17.7 0.00 0.00 0.00 60 1013.3
20260503224547 20 252 6.4 17.7 0.00 0.00 0.00 60 1013.2
20260503224035 20 297 4.8 14.5 0.00 0.00 0.00 62 1013.3
20260503223531 20 254 8.0 16.1 0.00 0.00 0.00 60 1013.3
20260503223051 20 252 6.4 16.1 0.00 0.00 0.00 60 1013.3
20260503222533 20 294 6.4 16.1 0.00 0.00 0.00 61 1013.2
20260503222031 20 300 6.4 16.1 0.00 0.00 0.00 60 1013.4
20260503221545 20 232 6.4 14.5 0.00 0.00 0.00 62 1013.5
20260503221037 20 313 6.4 16.1 0.00 0.00 0.00 63 1013.4
20260503220533 20 271 6.4 16.1 0.00 0.00 0.00 60 1013.4
20260503220046 20 238 8.0 16.1 0.00 0.00 0.00 59 1013.5
20260503215532 20 258 4.8 16.1 0.00 0.00 0.00 59 1013.6
20260503215031 20 323 4.8 14.5 0.00 0.00 0.00 59 1013.7
20260503214543 20 260 4.8 14.5 0.00 0.00 0.00 58 1013.7
20260503214038 20 285 6.4 14.5 0.00 0.00 0.00 61 1013.8
20260503213535 20 263 6.4 14.5 0.00 0.00 0.00 58 1013.7
20260503213103 20 290 6.4 14.5 0.00 0.00 0.00 57 1013.7
20260503212535 20 294 1.6 12.9 0.00 0.00 0.00 60 1013.8
20260503212035 20 315 4.8 14.5 0.00 0.00 0.00 63 1013.8
20260503211548 20 252 4.8 17.7 0.00 0.00 0.00 61 1013.8
20260503211035 20 269 6.4 17.7 0.00 0.00 0.00 65 1013.8
20260503210538 19 286 6.4 14.5 0.00 0.00 0.00 68 1013.8
20260503210056 19 292 6.4 14.5 0.00 0.00 0.00 68 1013.8
20260503205532 19 303 6.4 16.1 0.00 0.00 0.00 69 1013.9
20260503205035 19 282 4.8 16.1 0.00 0.00 0.00 67 1013.8
20260503204551 19 257 6.4 17.7 0.00 0.00 0.00 68 1013.9
20260503204031 18 324 8.0 17.7 0.00 0.00 0.00 68 1013.9
20260503203531 18 360 8.0 17.7 0.00 0.00 0.00 69 1013.9
20260503203047 18 259 9.7 17.7 0.00 0.00 0.00 69 1014.0
20260503202532 18 277 6.4 16.1 0.00 0.00 0.00 71 1014.0
20260503202034 18 297 9.7 17.7 0.00 0.00 0.00 70 1014.0
20260503201551 18 296 8.0 19.3 0.00 0.00 0.00 69 1014.0
20260503201035 18 312 8.0 19.3 0.00 0.00 0.00 70 1014.1
20260503200533 18 289 6.4 17.7 0.00 0.00 0.00 71 1014.1
20260503200054 18 340 6.4 17.7 0.00 0.00 0.00 71 1014.2
20260503195530 18 279 8.0 17.7 0.00 0.00 0.00 70 1014.3
20260503195035 18 310 8.0 19.3 0.00 0.00 0.00 70 1014.2
20260503194546 18 317 8.0 19.3 0.00 0.00 0.00 71 1014.2
20260503194035 18 313 8.0 16.1 0.00 0.00 0.00 70 1014.2
20260503193532 18 317 6.4 16.1 0.00 0.00 0.00 70 1014.3
20260503193054 18 247 8.0 19.3 0.00 0.00 0.00 70 1014.3
20260503192535 18 304 8.0 19.3 0.00 0.00 0.00 71 1014.3
20260503192034 18 313 4.8 14.5 0.00 0.00 0.00 72 1014.3
20260503191552 18 213 8.0 19.3 0.00 0.00 0.00 72 1014.3
20260503191032 18 278 8.0 19.3 0.00 0.00 0.00 73 1014.3
20260503190536 18 295 8.0 16.1 0.00 0.00 0.00 73 1014.4
20260503190048 17 267 6.4 16.1 0.00 0.00 0.00 73 1014.5
20260503185531 17 209 9.7 17.7 0.00 0.00 0.00 73 1014.5
20260503185035 17 311 4.8 17.7 0.00 0.00 0.00 75 1014.4
20260503184556 17 253 9.7 17.7 0.00 0.00 0.00 74 1014.4
20260503184036 17 314 8.0 16.1 0.00 0.00 0.00 73 1014.5
20260503183533 17 299 4.8 17.7 0.00 0.00 0.00 74 1014.5
20260503183101 17 294 6.4 17.7 0.00 0.00 0.00 73 1014.4
20260503182531 17 274 8.0 17.7 0.00 0.00 0.00 73 1014.4
20260503182035 17 279 6.4 17.7 0.00 0.00 0.00 74 1014.5
20260503181550 17 303 4.8 16.1 0.00 0.00 0.00 75 1014.4
20260503181031 17 288 6.4 16.1 0.00 0.00 0.00 75 1014.4
20260503180533 17 321 4.8 16.1 0.00 0.00 0.00 77 1014.5
20260503180051 17 294 4.8 16.1 0.00 0.00 0.00 77 1014.4
20260503175532 17 317 6.4 16.1 0.00 0.00 0.00 77 1014.5
20260503175036 17 297 4.8 16.1 0.00 0.00 0.00 76 1014.4
20260503174548 17 303 4.8 12.9 0.00 0.00 0.00 77 1014.4
20260503174032 17 275 6.4 12.9 0.00 0.00 0.00 77 1014.5
20260503173532 17 288 4.8 12.9 0.00 0.00 0.00 77 1014.5
20260503173111 17 306 6.4 12.9 0.00 0.00 0.00 77 1014.4
20260503172535 17 281 6.4 12.9 0.00 0.00 0.00 77 1014.4
20260503172031 17 275 4.8 12.9 0.00 0.00 0.00 77 1014.3
20260503171550 17 302 3.2 12.9 0.00 0.00 0.00 78 1014.3
20260503171033 17 324 4.8 11.3 0.00 0.00 0.00 79 1014.2
20260503170532 17 267 4.8 9.7 0.00 0.00 0.00 80 1014.2
20260503150534 16 299 3.2 8.0 0.00 0.00 0.00 85 1013.9
20260503131031 15 303 3.2 6.4 0.00 0.00 0.00 87 1013.1
20260503130531 15 289 1.6 8.0 0.00 0.00 0.00 86 1013.0
20260503110534 15 288 3.2 9.7 0.00 0.00 0.00 85 1012.4
20260503081546 15 203 0.0 1.6 0.00 0.00 0.00 88 1013.3
20260503081031 15 0 0.0 1.6 0.00 0.00 0.00 89 1013.3
20260503080533 15 0 0.0 1.6 0.00 0.00 0.00 89 1013.4
20260503072533 15 235 3.2 6.4 0.00 0.00 0.00 89 1013.7
20260503072032 15 252 0.0 4.8 0.00 0.00 0.00 89 1013.7
20260503071549 15 0 0.0 3.2 0.00 0.00 0.00 89 1013.7
20260503071031 15 291 0.0 4.8 0.00 0.00 0.00 89 1013.7
20260503070531 15 284 0.0 4.8 0.00 0.00 0.00 89 1013.6
20260503070105 15 284 1.6 4.8 0.00 0.00 0.00 89 1013.8
20260503055030 15 297 1.6 6.4 0.00 0.00 0.00 90 1013.2
20260503054547 15 275 1.6 4.8 0.00 0.00 0.00 90 1013.4
20260503054035 15 259 1.6 6.4 0.00 0.00 0.00 90 1013.4
20260503053533 15 0 0.0 6.4 0.00 0.00 0.00 90 1013.4
20260503053046 15 266 1.6 4.8 0.00 0.00 0.00 90 1013.4
20260503052531 15 265 0.0 4.8 0.00 0.00 0.00 89 1013.3
20260503052031 15 274 1.6 4.8 0.00 0.00 0.00 89 1013.2
20260503051545 15 282 0.0 3.2 0.00 0.00 0.00 89 1013.3
20260503051034 15 0 0.0 4.8 0.00 0.00 0.00 89 1013.1
20260503050535 15 293 0.0 6.4 0.00 0.00 0.00 89 1013.1
20260503050045 15 342 1.6 6.4 0.00 0.00 0.00 89 1013.0
20260503045531 15 312 0.0 3.2 0.00 0.00 0.00 89 1012.8
20260503045036 15 0 0.0 3.2 0.00 0.00 0.00 89 1012.7
20260503044540 15 0 0.0 4.8 0.00 0.00 0.00 89 1012.7
20260503044031 15 300 1.6 4.8 0.00 0.00 0.00 88 1012.7
20260503043530 15 332 0.0 4.8 0.00 0.00 0.00 88 1012.6
20260503043048 15 308 1.6 4.8 0.00 0.00 0.00 88 1012.5
20260503042531 15 315 1.6 4.8 0.00 0.00 0.00 88 1012.3
20260503042033 15 290 0.0 3.2 0.00 0.00 0.00 88 1012.2
20260503041556 15 333 0.0 4.8 0.00 0.00 0.00 88 1012.1
20260503041033 15 0 0.0 4.8 0.00 0.00 0.00 88 1012.0
20260503040530 15 290 1.6 4.8 0.00 0.00 0.00 88 1012.0
20260503040054 15 311 1.6 4.8 0.00 0.00 0.00 88 1011.8
20260503035532 15 0 0.0 4.8 0.00 0.00 0.00 88 1011.8
20260503035034 15 20 0.0 4.8 0.00 0.00 0.00 88 1011.8
20260503034559 15 304 1.6 4.8 0.00 0.00 0.00 88 1011.7
20260503034030 15 0 1.6 4.8 0.00 0.00 0.00 88 1011.9
20260503033530 15 313 1.6 4.8 0.00 0.00 0.00 88 1011.8
20260503033049 15 311 0.0 4.8 0.00 0.00 0.00 88 1011.8